"Pseudo-MPEC" for P21JaPG

Created 2023 Sep 19 11:22:53 UT using Find_Orb

Click here for an explanation of pseudo-MPECs

 
 Astrometry: 
     P21JaPG  C2023 07 27YK4oK=5S_xg!c](Y%rv8\8w(LGQuN1b3og*+@j].kEsYKEV=\HngF51
     P21JaPG  C2023 07 27terp9)JUq@v!%=E%7$dO)0_l.o0OiPG9C+dyV^O1=lWYKnOPXXYBF51
     P21JaPG  C2023 07 274h]SUL)V@L;^%qvU)9!:L'.U1@3D=+X+1;8@BuQbHl'v6!il;;s#F51
     P21JaPG  C2023 08 18J*w7N:C-.8)D44`6Z`qx6.S%TntMKD1I69c3=u#0XGxlb4'H_%_mF51
     P21JaPG  C2023 08 223!'9NS79MS?`S7\VG:XE-@YAstrometryhhm'fZFAb9poP/K$DdpF51
     P21JaPG  C2023 08 25[L(;^M$`jGY7NyrN@4gj]rT.vpR:fh;mpVQx2V8#qm+Je4kSU56MF51
     P21JaPG  C2023 08 25iDI`Q?YsiiKA![ZW^+JCVjW!C36Z`ZXd@/((;tL*ym_ZMrY@;i0MF51
     P21JaPG  C2023 08 25j.:ZhT:r4redacted;d5lo/rybf8BmTnO/o969G*ti_hjWclick#F51
     P21JaPG* C2023 09 11T2l'Us[=_s9,(-3Wp\herep-vr7JaP8Q.o+@a`!Y\3VL$^Y7oPt?F52
     P21JaPG  C2023 09 11]J7Nty%fP3\6-wv.n/k''!T+93C.cqMAe)od.[nuq^\I4j=C5DJ6F52
     P21JaPG  C2023 09 11xVOfS7)Je^E*g:nuOJG!,piPg3@1]0d9:*lQ3ppq;^UH3_e7`@wVF52
     P21JaPG  C2023 09 11/(wvH.ZXLMLVt$DjNo`OToQATp3:60J8GP:00M68yG2#kVR`[nf2F51
     P21JaPG  C2023 09 11j@)#5s3_Ma$@Khmam.lJSIV:?7b+$R-U;ZCT.#ofw@TE([ljMDPMF51
     P21JaPG  C2023 09 128JUB-5)bP__Tl:O_1[Q!cGymt7=9lM5yb?;m7U,=q`/1i/pE!VbIF51
     P21JaPG  C2023 09 12U/CmM698E-/\b;SZVbkyKp=V2f1BdXoTKIZc?YK)o3xHmTd9T6/.F51
     P21JaPG  C2023 09 12`LdsmO;1bde3gQ,Yi)5hQ]BPP,_8l1eX,Zinx/'?/XhZoKJ]#aZsF51
     P21JaPG  C2023 09 1870%vIKa%kt1KcY$LaC[?I$T?O$V,e6%V!^,J0m)!Ao+N^15(m/+qF52
     P21JaPG  C2023 09 18=$u[-:qfprKv5IZjkOJPW/aGk.0PYM/ZHjAb;-Xh24d!]xk('p2_F52
     P21JaPG  C2023 09 18YNfor,J\TCcvk-=-I$e77SU8jT^M[T_@explanation337pvEf?/F52
     P21JaPG  C2023 09 18bdYq?76VNi2AZ@Y-!gFvZVk*-6pLy2kpEb5\yFeBX`VR?=S,d)`xF52

Station data:
(F51) Pan-STARRS 1, Haleakala  (N20.707234 W156.255910)  US/Hawaii.
   Observers J. Bulger, T. Lowe, A. Schultz, M. Willman. Measurers K.
   Chambers, S. Chastel, T. de Boer, L. Denneau, J. Fairlamb, H. Flewelling,
   M. Huber, C.-C. Lin, E. Magnier, Y. Ramanjooloo, R. Wainscoat, R. Weryk.
   1.8-m Ritchey-Chrétien + CCD.
(F52) Pan-STARRS 2, Haleakala  (N20.707382 W156.255910)  US/Hawaii.
   Observers J. Bulger, T. Dukes, T. Lowe, A. Schultz, M. Willman. Measurers
   K. Chambers, S. Chastel, T. de Boer, L. Denneau, J. Fairlamb, H.
   Flewelling, M. Huber, C.-C. Lin, E. Magnier, Y. Ramanjooloo, R. Wainscoat,
   R. Weryk. 1.8-m Ritchey-Chrétien + CCD.

Orbital elements:  P21JaPG
   Perihelion 2023 Sep 1.39572 +/- 0.0006 TT =  9:29:50 (JD 2460188.89572)
Epoch 2023 Sep 18.0 TT = JDT 2460205.5   Earth MOID: 0.2976   Ma: 0.0655
M   4.47908084 +/- 0.00025          (J2000 ecliptic)             AutoNEOCP
n   0.26975459 +/- 2.25e-5          Peri.  205.13818 +/- 0.00059
a   2.37223011 +/- 0.000132         Node   137.05360 +/- 0.00027
e   0.4528612 +/- 2.52e-5           Incl.   10.20677 +/- 0.00039
P   3.65                   H 22.79  G  0.15   U  5.6
q 1.29793900 +/- 1.24e-5    Q 3.44652122 +/- 0.000251
From 20 observations 2023 July 27-Sept. 18; mean residual 0".16
Residuals in arcseconds: 
230727 F51  .11+  .17-    230825 F51  .11+  .07-    230912 F51  .03+  .02-    
230727 F51  .06-  .39+    230911 F52  .04+  .07-    230912 F51  .02-  .14-    
230727 F51  .08-  .23-    230911 F52  .03-  .09-    230918 F52  .42+  .21+    
230818 F51  .18+  .04-    230911 F52  .20-  .03-    230918 F52  .13-  .15+    
230822 F51  .02-  .02+    230911 F51  .09-  .09-    230918 F52  .05-  .06+    
230825 F51  .28-  .28+    230911 F51  .04+  .12-    230918 F52  .11+  .17+    
230825 F51  .04+  .03+    230912 F51  .17-  .23-    

Ephemerides (geocentric):
Date (UTC) HH   RA             Dec           delta  r     elong  mag " sig PA
---- --------  ------------   ------------  ------ ------ -----  --- --------
2023 09 19 11  00 33 45.341   -25 17 58.91  .33248 1.3108 153.6 22.0 .049  71
2023 09 19 12  00 33 48.014   -25 18 31.44  .33258 1.3109 153.6 22.0 .049  71
2023 09 19 13  00 33 50.683   -25 19 03.87  .33268 1.3109 153.5 22.0 .049  71
2023 09 19 14  00 33 53.348   -25 19 36.21  .33278 1.3110 153.5 22.0 .049  71
2023 09 19 15  00 33 56.010   -25 20 08.46  .33288 1.3110 153.5 22.0 .050  71
2023 09 19 16  00 33 58.667   -25 20 40.62  .33298 1.3111 153.5 22.0 .050  72
2023 09 19 17  00 34 01.321   -25 21 12.69  .33308 1.3112 153.5 22.0 .050  72
2023 09 19 18  00 34 03.971   -25 21 44.67  .33318 1.3112 153.5 22.0 .051  72
2023 09 19 19  00 34 06.618   -25 22 16.55  .33328 1.3113 153.5 22.0 .051  72
2023 09 19 20  00 34 09.260   -25 22 48.34  .33338 1.3113 153.5 22.0 .051  72
2023 09 19 21  00 34 11.899   -25 23 20.05  .33348 1.3114 153.5 22.0 .051  73
2023 09 19 22  00 34 14.534   -25 23 51.65  .33358 1.3115 153.4 22.0 .052  73
2023 09 19 23  00 34 17.165   -25 24 23.17  .33368 1.3115 153.4 22.0 .052  73
2023 09 20 00  00 34 19.792   -25 24 54.60  .33379 1.3116 153.4 22.0 .052  73
2023 09 20 01  00 34 22.416   -25 25 25.93  .33389 1.3116 153.4 22.0 .052  74
2023 09 20 02  00 34 25.036   -25 25 57.17  .33399 1.3117 153.4 22.0 .053  74
2023 09 20 03  00 34 27.652   -25 26 28.32  .33409 1.3118 153.4 22.0 .053  74
2023 09 20 04  00 34 30.265   -25 26 59.38  .33419 1.3118 153.4 22.0 .053  74
2023 09 20 05  00 34 32.873   -25 27 30.34  .33430 1.3119 153.4 22.0 .054  74
2023 09 20 06  00 34 35.478   -25 28 01.21  .33440 1.3119 153.4 22.0 .054  75
2023 09 20 07  00 34 38.079   -25 28 31.99  .33450 1.3120 153.3 22.0 .054  75
2023 09 20 08  00 34 40.677   -25 29 02.68  .33460 1.3121 153.3 22.0 .054  75
2023 09 20 09  00 34 43.271   -25 29 33.28  .33471 1.3121 153.3 22.0 .055  75
2023 09 20 10  00 34 45.861   -25 30 03.78  .33481 1.3122 153.3 22.0 .055  75
2023 09 20 11  00 34 48.447   -25 30 34.19  .33491 1.3123 153.3 22.0 .055  76
2023 09 20 12  00 34 51.030   -25 31 04.51  .33502 1.3123 153.3 22.0 .056  76
2023 09 20 13  00 34 53.609   -25 31 34.74  .33512 1.3124 153.3 22.0 .056  76
2023 09 20 14  00 34 56.184   -25 32 04.87  .33522 1.3124 153.3 22.0 .056  76
2023 09 20 15  00 34 58.755   -25 32 34.92  .33533 1.3125 153.2 22.0 .056  76
2023 09 20 16  00 35 01.323   -25 33 04.87  .33543 1.3126 153.2 22.0 .057  77
2023 09 20 17  00 35 03.887   -25 33 34.72  .33554 1.3126 153.2 22.0 .057  77
2023 09 20 18  00 35 06.448   -25 34 04.49  .33564 1.3127 153.2 22.0 .057  77
2023 09 20 19  00 35 09.005   -25 34 34.16  .33575 1.3128 153.2 22.0 .058  77
2023 09 20 20  00 35 11.558   -25 35 03.74  .33585 1.3128 153.2 22.0 .058  77
2023 09 20 21  00 35 14.107   -25 35 33.23  .33596 1.3129 153.2 22.0 .058  77
2023 09 20 22  00 35 16.653   -25 36 02.62  .33606 1.3129 153.2 22.0 .058  78
2023 09 20 23  00 35 19.196   -25 36 31.93  .33617 1.3130 153.2 22.0 .059  78
2023 09 21 00  00 35 21.734   -25 37 01.14  .33627 1.3131 153.1 22.0 .059  78
2023 09 21 01  00 35 24.269   -25 37 30.25  .33638 1.3131 153.1 22.0 .059  78
2023 09 21 02  00 35 26.800   -25 37 59.28  .33649 1.3132 153.1 22.0 .060  78
2023 09 21 03  00 35 29.328   -25 38 28.21  .33659 1.3133 153.1 22.0 .060  79
2023 09 21 04  00 35 31.852   -25 38 57.05  .33670 1.3133 153.1 22.0 .060  79
2023 09 21 05  00 35 34.373   -25 39 25.79  .33681 1.3134 153.1 22.0 .060  79
2023 09 21 06  00 35 36.889   -25 39 54.45  .33691 1.3135 153.1 22.0 .061  79
2023 09 21 07  00 35 39.403   -25 40 23.01  .33702 1.3135 153.1 22.0 .061  79
2023 09 21 08  00 35 41.912   -25 40 51.47  .33713 1.3136 153.0 22.0 .061  80
2023 09 21 09  00 35 44.418   -25 41 19.85  .33724 1.3136 153.0 22.0 .062  80
2023 09 21 10  00 35 46.921   -25 41 48.13  .33734 1.3137 153.0 22.0 .062  80